Lexington Weather

Lexington, Massachusetts, USA

56°F
10/22/2020 8:10pm 
  • Lexington Conditions: Mostly cloudy
  • Temperature: 55.8°F / 13.2°C 
  • Dew Point: 54.3°F 
  • Relative Humidity: 95
  • Wind: Calm, 10-min avg: Calm, gust: 2 mph
  • Barometer: 30.22 in Steady
  • Visibility: 7 miles
  • Rain Today: 0.00 in
  •   
Southeast Middlesex County - Special Weather Statement
 - SEE ALL NEARBY ALERTS -

Regional Weather Roundup
for Boston / Norton, MA

        
000
ASUS41 KBOX 220904
RWRBOX

REGIONAL WEATHER ROUNDUP
NATIONAL WEATHER SERVICE BOSTON/NORTON MA
500 AM EDT THU OCT 22 2020

NOTE:  "FAIR" INDICATES FEW OR NO CLOUDS BELOW 12,000 FEET WITH NO 
SIGNIFICANT WEATHER AND/OR OBSTRUCTIONS TO VISIBILITY.

MAZALL-221000-
EASTERN MASSACHUSETTS
  
CITY           SKY/WX    TMP DP  RH WIND       PRES   REMARKS
BOSTON         PTCLDY    64  61  90 W5        30.21R                  
BEVERLY        CLEAR     61  60  97 W3        30.19R                  
LAWRENCE       CLEAR     58  58 100 CALM      30.22R                  
BEDFORD        FOG       58  58 100 CALM      30.19R VSB 3/4          
BLUE HILL        N/A     62  61  96 W9        30.21R                  
NORWOOD        FOG       57  55  93 CALM      30.21R VSB 1/4          
MARSHFIELD     CLOUDY    66  66 100 SW3       30.20R                  
PLYMOUTH       CLOUDY    64  63  96 SW8       30.20S                  
TAUNTON        CLOUDY    65  63  93 CALM      30.21R                  
NEW BEDFORD    CLOUDY    64  64 100 CALM      30.20S FOG              
$$

MAZALL-221000-
CAPE COD AND THE ISLANDS
  
CITY           SKY/WX    TMP DP  RH WIND       PRES   REMARKS
FALMOUTH       FOG       61  61 100 SW7       30.20F VSB 1/4          
HYANNIS        CLOUDY    63  63 100 SW3       30.20S FOG              
CHATHAM        FOG       62  61  96 S3        30.22S VSB 1/2          
PROVINCETOWN   PTCLDY    60  60 100 SW7       30.21R                  
NANTUCKET      FOG      N/A N/A N/A SW6       30.22S VSB 1/4          
MARTHAS VNYRD  CLOUDY    62  62 100 W3        30.21S FOG              
$$
 
MAZALL-221000-
CENTRAL AND WESTERN MASSACHUSETTS
  
CITY           SKY/WX    TMP DP  RH WIND       PRES   REMARKS
WORCESTER      MOCLDY    62  59  90 W7        30.23S                  
FITCHBURG      FOG       57  57 100 CALM      30.22R VSB 1/2          
ORANGE         FOG       54  54 100 NW3       30.23R VSB 1/2          
SPRINGFIELD    CLOUDY    63  60  90 N5        30.21R                  
WESTFIELD      CLOUDY    62  59  90 N6        30.22R                  
NORTH ADAMS    CLOUDY    61  55  81 CALM      30.25R                  
PITTSFIELD     CLOUDY    60  52  74 VRB5      30.24R                  
$$
 
RIZALL-221000-
RHODE ISLAND
  
CITY           SKY/WX    TMP DP  RH WIND       PRES   REMARKS
PROVIDENCE     CLEAR     63  63 100 CALM      30.21S                  
NEWPORT        FOG       63  63 100 CALM      30.21S VSB 1/2          
BLOCK ISLAND   LGT RAIN  61  61 100 SW6       30.23R VSB 1/2          
SMITHFIELD     CLOUDY    66  65  96 NW8         N/A                   
WESTERLY       FOG       63  62  97 CALM      30.22R VSB 1/4          
$$
 
CTZALL-221000-
CONNECTICUT
  
CITY           SKY/WX    TMP DP  RH WIND       PRES   REMARKS
BRADLEY INTL   FOG       60  59  96 NW5       30.22R VSB 1/8          
HARTFORD       CLOUDY    66  63  90 CALM      30.21R                  
BRIDGEPORT     FOG       64  63  96 CALM      30.21R VSB 1/4          
DANBURY        CLOUDY    63  63 100 W3        30.23S FOG              
GROTON         FOG       63  63 100 CALM      30.21R VSB 1/4          
NEW HAVEN      FOG       64  64 100 CALM      30.21R VSB 1/4          
CHESTER        FOG       64  64 100 CALM      30.23R VSB 1/4          
MERIDEN        FOG       64  62  93 CALM      30.22R VSB 1/4          
WILLIMANTIC    CLOUDY    66  63  90 CALM      30.22R                  
OXFORD         CLOUDY    63  63 100 CALM      30.24R FOG              
$$

MEZ002-015-021-024-NHZ003-005-008-011-012-014-VTZ005-008-221000-
NORTHERN NEW ENGLAND
  
CITY           SKY/WX    TMP DP  RH WIND       PRES   REMARKS
PORTLAND ME    FOG       52  52 100 CALM      30.20R VSB 1/4          
BANGOR ME      FOG       52  51  97 NW5       30.20R VSB 1/2          
CONCORD NH     FOG       49  48  97 CALM      30.21R VSB 1/2          
MANCHESTER NH  MOCLDY    57  54  89 CALM      30.19R                  
NASHUA NH      PTCLDY    56  56 100 NW5       30.22R                  
PORTSMOUTH NH  FOG       52  52 100 CALM      30.18R VSB 3/8          
JAFFREY NH     PTCLDY    56  54  93 CALM      30.22S FOG              
KEENE NH       PTCLDY    58  57  97 CALM      30.22S                  
BURLINGTON VT  CLEAR     50  46  86 E5        30.25R                  
MT. WASHINGTON FOG       36  32  87 W45         N/A  VSB 1/16WCI  20  
$$

NYZ052-076-221000-
EASTERN NEW YORK
  
CITY           SKY/WX    TMP DP  RH WIND       PRES   REMARKS
ALBANY         CLOUDY    57  52  83 CALM      30.26S                  
NEW YORK CITY  CLOUDY    67  63  87 CALM      30.21R                  
$$
 
ANZALL-221000-
MARINE OBSERVATIONS
  
STATION/POSITION TIME  TEMP    WIND        PRES    VSBY  WAVE
                       AIR SEA DIR/SP/G                  HT/PER
                 (UTC) (F)     (DEG/KT/KT) (MB)    (MI)  (FT/S)
BOSTON BUOY      0850   60 58  220/  6/  6 1021.5R         3/11
BUZZARDS BAY     0800          250/  7/  8 1024.0F
NANTUCKET SOUND  0840      62  260/  8/ 10   N/A
MASS BAY-STELLWA 0804   60 58  220/  6/  8 1021.3F  1 7/8  3/11
ISLE OF SHOALS   0800   62     250/  9/  9 1021.4R
S OF BLOCK IS    0826      63                N/A           3/ 9
$$

......................KEY.........................
  SKY/WX - SKY CONDITION/PRESENT WEATHER
  TMP    - TEMPERATURE IN FAHRENHEIT
  DWPT   - DEWPOINT IN FAHRENHEIT
  RH     - RELATIVE HUMIDITY IN PERCENT
  WIND   - DIRECTION AND SPEED IN MPH
  PRES   - MEAN SEA LEVEL PRESSURE IN INCHES OF HG
  WCI    - WIND CHILL INDEX
  VSB    - VISIBILITY IN MILES
  HX     - HEAT INDEX
  TC     - TEMPERATURE IN CELSIUS
  VRB    - VARIABLE WIND DIRECTION
  N/A    - NOT AVAILABLE
  
      

Other recent Regional Weather Roundups

Thu Oct 22, 7:05pm

Thu Oct 22, 6:04pm

Thu Oct 22, 5:04pm

Thu Oct 22, 4:05pm

Thu Oct 22, 3:04pm

Thu Oct 22, 2:05pm

Thu Oct 22, 1:04pm

Thu Oct 22, 12:04pm

Thu Oct 22, 11:04am

Thu Oct 22, 10:05am

Thu Oct 22, 9:04am

Thu Oct 22, 8:05am

Thu Oct 22, 7:04am

Thu Oct 22, 6:04am

Thu Oct 22, 4:04am

Thu Oct 22, 3:04am

Thu Oct 22, 2:04am

Thu Oct 22, 1:04am

Thu Oct 22, 12:04am

Wed Oct 21, 11:05pm

Wed Oct 21, 10:04pm

Wed Oct 21, 9:04pm

Wed Oct 21, 8:04pm

Wed Oct 21, 7:04pm

Wed Oct 21, 6:04pm

Wed Oct 21, 5:05pm

Wed Oct 21, 4:04pm

Wed Oct 21, 3:04pm

Wed Oct 21, 2:05pm

Wed Oct 21, 1:04pm

Wed Oct 21, 12:04pm

Wed Oct 21, 11:04am

Wed Oct 21, 10:04am

Wed Oct 21, 9:04am

Wed Oct 21, 8:04am

Wed Oct 21, 7:04am

Wed Oct 21, 6:04am

Wed Oct 21, 5:04am

Wed Oct 21, 4:04am

Wed Oct 21, 3:04am

Wed Oct 21, 2:04am

Wed Oct 21, 1:04am

Wed Oct 21, 12:04am

Tue Oct 20, 11:05pm

Tue Oct 20, 10:04pm

Tue Oct 20, 9:04pm

Tue Oct 20, 8:05pm

Tue Oct 20, 7:04pm

Tue Oct 20, 6:04pm

Tue Oct 20, 5:05pm

Tue Oct 20, 4:04pm

Tue Oct 20, 3:05pm

Tue Oct 20, 2:07pm

Tue Oct 20, 1:04pm

Tue Oct 20, 12:04pm

Tue Oct 20, 11:04am

Tue Oct 20, 10:05am

Tue Oct 20, 9:04am

Tue Oct 20, 8:04am

Tue Oct 20, 7:04am

Tue Oct 20, 6:04am

Tue Oct 20, 5:04am

Tue Oct 20, 4:04am

Tue Oct 20, 3:04am

Tue Oct 20, 2:04am

Tue Oct 20, 1:04am

Tue Oct 20, 12:04am

Mon Oct 19, 11:04pm

Mon Oct 19, 10:04pm

Mon Oct 19, 9:04pm

Mon Oct 19, 8:04pm

Mon Oct 19, 7:04pm

Mon Oct 19, 6:04pm

Mon Oct 19, 5:04pm

Mon Oct 19, 4:04pm

Mon Oct 19, 3:04pm

Mon Oct 19, 2:04pm

Mon Oct 19, 1:05pm

Mon Oct 19, 12:04pm

Mon Oct 19, 11:04am

Mon Oct 19, 10:04am

Mon Oct 19, 9:04am

Mon Oct 19, 8:04am

Mon Oct 19, 7:04am

Mon Oct 19, 6:04am

Mon Oct 19, 5:04am

Mon Oct 19, 4:04am

Mon Oct 19, 3:04am

Mon Oct 19, 2:04am

Mon Oct 19, 1:04am

Mon Oct 19, 12:05am

Sun Oct 18, 11:04pm

Sun Oct 18, 10:04pm

Sun Oct 18, 9:04pm

Sun Oct 18, 8:04pm

Sun Oct 18, 7:05pm

Sun Oct 18, 6:04pm

Sun Oct 18, 5:05pm

Sun Oct 18, 4:05pm

Sun Oct 18, 3:04pm

Sun Oct 18, 2:05pm

Sun Oct 18, 1:04pm

Sun Oct 18, 12:04pm

Sun Oct 18, 11:04am

Sun Oct 18, 10:04am

Sun Oct 18, 9:04am

Sun Oct 18, 8:04am

Sun Oct 18, 7:04am

Sun Oct 18, 6:04am

Sun Oct 18, 5:04am

Sun Oct 18, 4:04am

Sun Oct 18, 3:04am

Sun Oct 18, 2:04am

Sun Oct 18, 1:04am

Sun Oct 18, 12:04am

Sat Oct 17, 11:05pm

Sat Oct 17, 10:04pm

Sat Oct 17, 9:04pm

Sat Oct 17, 8:04pm

Sat Oct 17, 7:04pm

Sat Oct 17, 6:04pm

Sat Oct 17, 5:05pm

Sat Oct 17, 4:04pm

Sat Oct 17, 3:04pm

Sat Oct 17, 2:05pm

Sat Oct 17, 1:05pm

Sat Oct 17, 12:04pm

Sat Oct 17, 11:05am

Sat Oct 17, 10:04am

Sat Oct 17, 9:04am

Sat Oct 17, 8:04am

Sat Oct 17, 7:04am

Sat Oct 17, 6:04am

Sat Oct 17, 5:04am

Sat Oct 17, 4:04am

Sat Oct 17, 3:04am

Sat Oct 17, 2:04am

Sat Oct 17, 1:05am

Sat Oct 17, 12:04am

Fri Oct 16, 11:05pm

Fri Oct 16, 10:04pm

Fri Oct 16, 9:05pm

Fri Oct 16, 8:04pm

Fri Oct 16, 7:05pm

Fri Oct 16, 6:04pm

Fri Oct 16, 5:04pm

Fri Oct 16, 4:05pm

Fri Oct 16, 3:04pm

Fri Oct 16, 2:04pm

Fri Oct 16, 1:04pm

Fri Oct 16, 12:04pm

Fri Oct 16, 11:05am

Fri Oct 16, 10:04am

Fri Oct 16, 9:04am

Fri Oct 16, 8:04am

Fri Oct 16, 7:04am

Fri Oct 16, 6:04am

Fri Oct 16, 5:04am

Fri Oct 16, 4:04am

Fri Oct 16, 3:04am

Fri Oct 16, 2:04am

Fri Oct 16, 1:04am

Fri Oct 16, 12:04am

Thu Oct 15, 11:04pm

Thu Oct 15, 10:04pm

Thu Oct 15, 9:05pm

Thu Oct 15, 8:04pm

Meta data:

ID: b23ca75c-e05b-48f0-ad30-a7b2bbf643b1
Link: https://api.weather.gov/products/b23ca75c-e05b-48f0-ad30-a7b2bbf643b1